| time (UTC) | temp C | wind direction | speed KPH | gust KPH | rain 1hr cm | rain 24hr cm | rain mn cm | humidity % | barometer mb |
| 20260906090704 | 30 | 180 | 4.8 | 0.0 | 0.00 | 0.00 | 0.00 | 30 | 1013.2 |
| 20260906085204 | 30 | 225 | 4.8 | 0.0 | 0.00 | 0.00 | 0.00 | 30 | 1013.2 |
| 20260906084704 | 30 | 315 | 11.3 | 0.0 | 0.00 | 0.00 | 0.00 | 30 | 1013.2 |
| 20260906083704 | 30 | 0 | 8.0 | 0.0 | 0.00 | 0.00 | 0.00 | 30 | 1013.4 |
| 20260906083204 | 30 | 45 | 11.3 | 0.0 | 0.00 | 0.00 | 0.00 | 30 | 1013.3 |
| 20260906082704 | 30 | 90 | 8.0 | 0.0 | 0.00 | 0.00 | 0.00 | 30 | 1013.3 |
| 20260906082204 | 30 | 315 | 8.0 | 0.0 | 0.00 | 0.00 | 0.00 | 30 | 1013.2 |
| 20260906080704 | 30 | 270 | 4.8 | 0.0 | 0.00 | 0.00 | 0.00 | 31 | 1013.2 |
| 20260906080204 | 30 | 225 | 3.2 | 0.0 | 0.00 | 0.00 | 0.00 | 31 | 1013.3 |
| 20260906075703 | 30 | 45 | 4.8 | 0.0 | 0.00 | 0.00 | 0.00 | 32 | 1013.3 |
| 20260906075203 | 29 | 45 | 3.2 | 0.0 | 0.00 | 0.00 | 0.00 | 30 | 1013.2 |
| 20260906074705 | 29 | 315 | 3.2 | 0.0 | 0.00 | 0.00 | 0.00 | 30 | 1013.2 |
| 20260906074205 | 29 | 315 | 9.7 | 0.0 | 0.00 | 0.00 | 0.00 | 31 | 1013.2 |
| 20260906073704 | 29 | 315 | 3.2 | 0.0 | 0.00 | 0.00 | 0.00 | 31 | 1013.1 |
| 20260906073204 | 29 | 0 | 3.2 | 0.0 | 0.00 | 0.00 | 0.00 | 30 | 1013.0 |
| 20260906072705 | 29 | 315 | 6.4 | 0.0 | 0.00 | 0.00 | 0.00 | 30 | 1013.2 |
| 20260906072204 | 29 | 315 | 6.4 | 0.0 | 0.00 | 0.00 | 0.00 | 30 | 1013.0 |
| 20260906071704 | 29 | 45 | 6.4 | 0.0 | 0.00 | 0.00 | 0.00 | 30 | 1013.0 |
| 20260906071204 | 28 | 315 | 3.2 | 0.0 | 0.00 | 0.00 | 0.00 | 31 | 1012.9 |
| 20260906070704 | 28 | 45 | 6.4 | 0.0 | 0.00 | 0.00 | 0.00 | 30 | 1012.9 |
| 20260906070204 | 29 | 270 | 3.2 | 0.0 | 0.00 | 0.00 | 0.00 | 31 | 1012.9 |
| 20260906065704 | 28 | 315 | 0.0 | 0.0 | 0.00 | 0.00 | 0.00 | 31 | 1012.8 |
| 20260906065204 | 28 | 225 | 3.2 | 0.0 | 0.00 | 0.00 | 0.00 | 31 | 1012.8 |
| 20260906064204 | 27 | 270 | 1.6 | 0.0 | 0.00 | 0.00 | 0.00 | 32 | 1012.5 |
| 20260906063704 | 27 | 270 | 3.2 | 0.0 | 0.00 | 0.00 | 0.00 | 33 | 1012.5 |
| 20260906063204 | 26 | 225 | 3.2 | 0.0 | 0.00 | 0.00 | 0.00 | 39 | 1012.5 |
| 20260906062704 | 26 | 315 | 8.0 | 0.0 | 0.00 | 0.00 | 0.00 | 38 | 1012.5 |
| 20260906062204 | 26 | 315 | 8.0 | 0.0 | 0.00 | 0.00 | 0.00 | 39 | 1012.2 |
| 20260906061205 | 25 | 338 | 3.2 | 0.0 | 0.00 | 0.00 | 0.00 | 40 | 1012.2 |
| 20260906060704 | 25 | 270 | 6.4 | 0.0 | 0.00 | 0.00 | 0.00 | 39 | 1012.0 |
| 20260906060204 | 25 | 315 | 3.2 | 0.0 | 0.00 | 0.00 | 0.00 | 41 | 1012.2 |
| 20260906055704 | 25 | 180 | 3.2 | 0.0 | 0.00 | 0.00 | 0.00 | 43 | 1012.1 |
| 20260906055204 | 25 | 270 | 3.2 | 0.0 | 0.00 | 0.00 | 0.00 | 46 | 1012.1 |
| 20260906054704 | 23 | 225 | 3.2 | 0.0 | 0.00 | 0.00 | 0.00 | 50 | 1012.2 |
| 20260906054203 | 23 | 315 | 1.6 | 0.0 | 0.00 | 0.00 | 0.00 | 50 | 1012.2 |
| 20260906053704 | 22 | 203 | 1.6 | 0.0 | 0.00 | 0.00 | 0.00 | 50 | 1012.2 |
| 20260906052703 | 22 | 225 | 0.0 | 0.0 | 0.00 | 0.00 | 0.00 | 50 | 1012.2 |
| 20260906052204 | 22 | 315 | 3.2 | 0.0 | 0.00 | 0.00 | 0.00 | 53 | 1012.2 |
| 20260906051204 | 21 | 270 | 1.6 | 0.0 | 0.00 | 0.00 | 0.00 | 54 | 1012.0 |
| 20260906050703 | 21 | 225 | 0.0 | 0.0 | 0.00 | 0.00 | 0.00 | 54 | 1012.2 |
| 20260906045704 | 21 | 180 | 3.2 | 0.0 | 0.00 | 0.00 | 0.00 | 53 | 1011.9 |
| 20260906045204 | 21 | 225 | 1.6 | 0.0 | 0.00 | 0.00 | 0.00 | 52 | 1012.1 |
| 20260906044204 | 20 | 225 | 0.0 | 0.0 | 0.00 | 0.00 | 0.00 | 54 | 1012.0 |
| 20260906043704 | 20 | 225 | 0.0 | 0.0 | 0.00 | 0.00 | 0.00 | 54 | 1011.7 |
| 20260906043204 | 20 | 225 | 0.0 | 0.0 | 0.00 | 0.00 | 0.00 | 53 | 1011.5 |
| 20260906042704 | 19 | 225 | 0.0 | 0.0 | 0.00 | 0.00 | 0.00 | 54 | 1011.6 |
| 20260906041704 | 18 | 135 | 0.0 | 0.0 | 0.00 | 0.00 | 0.00 | 55 | 1011.3 |
| 20260906041204 | 18 | 225 | 0.0 | 0.0 | 0.00 | 0.00 | 0.00 | 56 | 1011.3 |
| 20260906040704 | 18 | 225 | 0.0 | 0.0 | 0.00 | 0.00 | 0.00 | 56 | 1011.3 |
| 20260906035204 | 18 | 225 | 0.0 | 0.0 | 0.00 | 0.00 | 0.00 | 56 | 1011.1 |
| 20260906034204 | 18 | 225 | 0.0 | 0.0 | 0.00 | 0.00 | 0.00 | 56 | 1011.1 |
| 20260906033704 | 18 | 225 | 0.0 | 0.0 | 0.00 | 0.00 | 0.00 | 57 | 1011.1 |
| 20260906033203 | 18 | 180 | 0.0 | 0.0 | 0.00 | 0.00 | 0.00 | 57 | 1011.2 |
| 20260906032203 | 18 | 180 | 1.6 | 0.0 | 0.00 | 0.00 | 0.00 | 59 | 1011.0 |
| 20260906031703 | 18 | 225 | 0.0 | 0.0 | 0.00 | 0.00 | 0.00 | 59 | 1011.0 |
| 20260906031203 | 17 | 180 | 0.0 | 0.0 | 0.00 | 0.00 | 0.00 | 59 | 1011.2 |
| 20260906030204 | 17 | 225 | 0.0 | 0.0 | 0.00 | 0.00 | 0.00 | 59 | 1011.1 |
| 20260906025704 | 17 | 225 | 0.0 | 0.0 | 0.00 | 0.00 | 0.00 | 59 | 1011.1 |
| 20260906025204 | 17 | 225 | 0.0 | 0.0 | 0.00 | 0.00 | 0.00 | 58 | 1011.0 |
| 20260906024704 | 18 | 270 | 0.0 | 0.0 | 0.00 | 0.00 | 0.00 | 57 | 1011.1 |
| 20260906024204 | 18 | 270 | 0.0 | 0.0 | 0.00 | 0.00 | 0.00 | 57 | 1010.9 |
| 20260906023704 | 18 | 270 | 0.0 | 0.0 | 0.00 | 0.00 | 0.00 | 57 | 1011.0 |
| 20260906023204 | 18 | 225 | 0.0 | 0.0 | 0.00 | 0.00 | 0.00 | 56 | 1011.1 |
| 20260906022703 | 18 | 225 | 0.0 | 0.0 | 0.00 | 0.00 | 0.00 | 55 | 1011.0 |
| 20260906022204 | 18 | 225 | 0.0 | 0.0 | 0.00 | 0.00 | 0.00 | 55 | 1010.9 |
| 20260906021704 | 18 | 225 | 0.0 | 0.0 | 0.00 | 0.00 | 0.00 | 54 | 1010.9 |
| 20260906021203 | 18 | 225 | 0.0 | 0.0 | 0.00 | 0.00 | 0.00 | 53 | 1010.9 |
| 20260906020704 | 19 | 225 | 1.6 | 0.0 | 0.00 | 0.00 | 0.00 | 52 | 1011.0 |
| 20260906020204 | 19 | 225 | 1.6 | 0.0 | 0.00 | 0.00 | 0.00 | 52 | 1010.7 |
| 20260906015704 | 19 | 225 | 1.6 | 0.0 | 0.00 | 0.00 | 0.00 | 53 | 1010.8 |
| 20260906015204 | 19 | 180 | 3.2 | 0.0 | 0.00 | 0.00 | 0.00 | 53 | 1010.6 |
| 20260906014704 | 19 | 180 | 1.6 | 0.0 | 0.00 | 0.00 | 0.00 | 54 | 1010.7 |
| 20260906014203 | 18 | 293 | 3.2 | 0.0 | 0.00 | 0.00 | 0.00 | 56 | 1010.9 |
| 20260906013704 | 18 | 225 | 0.0 | 0.0 | 0.00 | 0.00 | 0.00 | 56 | 1010.8 |
| 20260906013203 | 18 | 225 | 0.0 | 0.0 | 0.00 | 0.00 | 0.00 | 56 | 1010.9 |
| 20260906012704 | 18 | 225 | 0.0 | 0.0 | 0.00 | 0.00 | 0.00 | 55 | 1010.8 |
| 20260906012204 | 18 | 225 | 0.0 | 0.0 | 0.00 | 0.00 | 0.00 | 55 | 1010.8 |
| 20260906011705 | 18 | 225 | 0.0 | 0.0 | 0.00 | 0.00 | 0.00 | 56 | 1010.8 |
| 20260906011204 | 18 | 225 | 1.6 | 0.0 | 0.00 | 0.00 | 0.00 | 56 | 1010.9 |
| 20260906010703 | 18 | 225 | 1.6 | 0.0 | 0.00 | 0.00 | 0.00 | 55 | 1011.0 |
| 20260906010204 | 18 | 225 | 1.6 | 0.0 | 0.00 | 0.00 | 0.00 | 55 | 1010.9 |
| 20260906005704 | 18 | 225 | 1.6 | 0.0 | 0.00 | 0.00 | 0.00 | 54 | 1011.0 |
| 20260906005204 | 18 | 225 | 1.6 | 0.0 | 0.00 | 0.00 | 0.00 | 55 | 1011.0 |
| 20260906004704 | 18 | 270 | 1.6 | 0.0 | 0.00 | 0.00 | 0.00 | 56 | 1010.9 |
| 20260906004204 | 18 | 180 | 1.6 | 0.0 | 0.00 | 0.00 | 0.00 | 56 | 1011.0 |
| 20260906003704 | 18 | 225 | 1.6 | 0.0 | 0.00 | 0.00 | 0.00 | 56 | 1011.0 |
| 20260906003204 | 18 | 225 | 1.6 | 0.0 | 0.00 | 0.00 | 0.00 | 55 | 1010.9 |
| 20260906002704 | 18 | 225 | 1.6 | 0.0 | 0.00 | 0.00 | 0.00 | 56 | 1010.9 |
| 20260906002204 | 18 | 225 | 0.0 | 0.0 | 0.00 | 0.00 | 0.00 | 56 | 1011.0 |
| 20260906001704 | 18 | 225 | 1.6 | 0.0 | 0.00 | 0.00 | 0.00 | 55 | 1011.2 |
| 20260906001203 | 19 | 225 | 0.0 | 0.0 | 0.00 | 0.00 | 0.00 | 53 | 1011.0 |
| 20260906000704 | 19 | 225 | 0.0 | 0.0 | 0.00 | 0.00 | 0.00 | 53 | 1011.2 |
| 20260906000204 | 20 | 225 | 0.0 | 0.0 | 0.00 | 0.00 | 0.00 | 52 | 1011.0 |
| 20260905235703 | 20 | 225 | 1.6 | 0.0 | 0.00 | 0.00 | 0.00 | 52 | 1011.0 |
| 20260905235204 | 20 | 90 | 0.0 | 0.0 | 0.00 | 0.00 | 0.00 | 52 | 1011.0 |
| 20260905234704 | 19 | 180 | 3.2 | 0.0 | 0.00 | 0.00 | 0.00 | 54 | 1011.1 |
| 20260905234204 | 19 | 225 | 0.0 | 0.0 | 0.00 | 0.00 | 0.00 | 54 | 1010.8 |
| 20260905233704 | 19 | 180 | 1.6 | 0.0 | 0.00 | 0.00 | 0.00 | 54 | 1010.9 |
| 20260905233204 | 19 | 135 | 0.0 | 0.0 | 0.00 | 0.00 | 0.00 | 53 | 1011.0 |
| 20260905232704 | 19 | 225 | 0.0 | 0.0 | 0.00 | 0.00 | 0.00 | 54 | 1010.9 |
| 20260905232204 | 19 | 180 | 1.6 | 0.0 | 0.00 | 0.00 | 0.00 | 54 | 1010.7 |
| 20260905231204 | 18 | 225 | 0.0 | 0.0 | 0.00 | 0.00 | 0.00 | 55 | 1011.0 |
| 20260905230204 | 19 | 270 | 0.0 | 0.0 | 0.00 | 0.00 | 0.00 | 54 | 1011.1 |
| 20260905225704 | 20 | 225 | 0.0 | 0.0 | 0.00 | 0.00 | 0.00 | 53 | 1010.9 |
| 20260905224703 | 20 | 225 | 1.6 | 0.0 | 0.00 | 0.00 | 0.00 | 52 | 1011.2 |
| 20260905223204 | 19 | 225 | 1.6 | 0.0 | 0.00 | 0.00 | 0.00 | 53 | 1010.9 |
| 20260905222704 | 20 | 225 | 1.6 | 0.0 | 0.00 | 0.00 | 0.00 | 53 | 1010.9 |
| 20260905222204 | 20 | 225 | 3.2 | 0.0 | 0.00 | 0.00 | 0.00 | 52 | 1010.9 |
| 20260905221204 | 20 | 225 | 0.0 | 0.0 | 0.00 | 0.00 | 0.00 | 53 | 1010.9 |
| 20260905220204 | 20 | 225 | 0.0 | 0.0 | 0.00 | 0.00 | 0.00 | 52 | 1011.0 |
| 20260905215704 | 20 | 225 | 1.6 | 0.0 | 0.00 | 0.00 | 0.00 | 52 | 1010.9 |
| 20260905215204 | 20 | 270 | 3.2 | 0.0 | 0.00 | 0.00 | 0.00 | 51 | 1011.0 |
| 20260905213703 | 21 | 203 | 3.2 | 0.0 | 0.00 | 0.00 | 0.00 | 52 | 1011.1 |
| 20260905213204 | 20 | 225 | 3.2 | 0.0 | 0.00 | 0.00 | 0.00 | 53 | 1011.3 |
| 20260905212704 | 20 | 180 | 3.2 | 0.0 | 0.00 | 0.00 | 0.00 | 54 | 1011.1 |
| 20260905212204 | 20 | 225 | 1.6 | 0.0 | 0.00 | 0.00 | 0.00 | 54 | 1011.1 |
| 20260905211703 | 20 | 225 | 1.6 | 0.0 | 0.00 | 0.00 | 0.00 | 54 | 1011.1 |
| 20260905211204 | 20 | 135 | 1.6 | 0.0 | 0.00 | 0.00 | 0.00 | 54 | 1011.2 |
| 20260905210704 | 20 | 180 | 0.0 | 0.0 | 0.00 | 0.00 | 0.00 | 54 | 1011.2 |
| 20260905210204 | 20 | 225 | 0.0 | 0.0 | 0.00 | 0.00 | 0.00 | 54 | 1011.3 |
| 20260905205704 | 20 | 225 | 0.0 | 0.0 | 0.00 | 0.00 | 0.00 | 54 | 1011.3 |
| 20260905205204 | 20 | 225 | 1.6 | 0.0 | 0.00 | 0.00 | 0.00 | 54 | 1011.1 |
| 20260905203704 | 20 | 180 | 0.0 | 0.0 | 0.00 | 0.00 | 0.00 | 56 | 1011.0 |
| 20260905203204 | 20 | 225 | 0.0 | 0.0 | 0.00 | 0.00 | 0.00 | 55 | 1011.0 |
| 20260905202204 | 20 | 225 | 3.2 | 0.0 | 0.00 | 0.00 | 0.00 | 59 | 1010.9 |
| 20260905201704 | 19 | 225 | 1.6 | 0.0 | 0.00 | 0.00 | 0.00 | 60 | 1011.1 |
| 20260905200204 | 20 | 225 | 1.6 | 0.0 | 0.00 | 0.00 | 0.00 | 56 | 1011.0 |
| 20260905195704 | 20 | 225 | 3.2 | 0.0 | 0.00 | 0.00 | 0.00 | 55 | 1011.1 |
| 20260905194203 | 22 | 270 | 1.6 | 0.0 | 0.00 | 0.00 | 0.00 | 51 | 1011.0 |
| 20260905193704 | 22 | 225 | 1.6 | 0.0 | 0.00 | 0.00 | 0.00 | 51 | 1011.1 |
| 20260905193204 | 22 | 225 | 3.2 | 0.0 | 0.00 | 0.00 | 0.00 | 51 | 1011.0 |
| 20260905192704 | 21 | 180 | 3.2 | 0.0 | 0.00 | 0.00 | 0.00 | 52 | 1011.2 |
| 20260905192204 | 21 | 180 | 3.2 | 0.0 | 0.00 | 0.00 | 0.00 | 53 | 1011.1 |
| 20260905191704 | 21 | 180 | 0.0 | 0.0 | 0.00 | 0.00 | 0.00 | 52 | 1011.0 |
| 20260905191205 | 21 | 270 | 0.0 | 0.0 | 0.00 | 0.00 | 0.00 | 52 | 1011.0 |
| 20260905185205 | 22 | 225 | 0.0 | 0.0 | 0.00 | 0.00 | 0.00 | 50 | 1010.8 |
| 20260905184704 | 22 | 225 | 1.6 | 0.0 | 0.00 | 0.00 | 0.00 | 50 | 1010.8 |
| 20260905184205 | 22 | 225 | 3.2 | 0.0 | 0.00 | 0.00 | 0.00 | 50 | 1010.7 |
| 20260905183204 | 22 | 180 | 1.6 | 0.0 | 0.00 | 0.00 | 0.00 | 45 | 1010.6 |
| 20260905182203 | 22 | 180 | 3.2 | 0.0 | 0.00 | 0.00 | 0.00 | 46 | 1010.4 |
| 20260905181703 | 22 | 180 | 3.2 | 0.0 | 0.00 | 0.00 | 0.00 | 47 | 1010.3 |
| 20260905181204 | 22 | 180 | 1.6 | 0.0 | 0.00 | 0.00 | 0.00 | 47 | 1010.2 |
| 20260905180704 | 22 | 225 | 1.6 | 0.0 | 0.00 | 0.00 | 0.00 | 48 | 1010.3 |
| 20260905180204 | 22 | 225 | 1.6 | 0.0 | 0.00 | 0.00 | 0.00 | 48 | 1010.3 |
| 20260905175704 | 22 | 180 | 1.6 | 0.0 | 0.00 | 0.00 | 0.00 | 48 | 1010.3 |
| 20260905175204 | 22 | 180 | 1.6 | 0.0 | 0.00 | 0.00 | 0.00 | 49 | 1010.2 |
| 20260905174204 | 22 | 225 | 0.0 | 0.0 | 0.00 | 0.00 | 0.00 | 48 | 1010.2 |
| 20260905173703 | 23 | 225 | 0.0 | 0.0 | 0.00 | 0.00 | 0.00 | 48 | 1009.9 |
| 20260905172703 | 23 | 225 | 0.0 | 0.0 | 0.00 | 0.00 | 0.00 | 47 | 1010.1 |
| 20260905172204 | 23 | 45 | 1.6 | 0.0 | 0.00 | 0.00 | 0.00 | 46 | 1010.0 |
| 20260905171704 | 23 | 45 | 0.0 | 0.0 | 0.00 | 0.00 | 0.00 | 45 | 1009.9 |
| 20260905171204 | 24 | 45 | 3.2 | 0.0 | 0.00 | 0.00 | 0.00 | 44 | 1010.0 |
| 20260905170704 | 25 | 45 | 1.6 | 0.0 | 0.00 | 0.00 | 0.00 | 43 | 1009.9 |
| 20260905170204 | 25 | 180 | 1.6 | 0.0 | 0.00 | 0.00 | 0.00 | 42 | 1009.7 |
| 20260905165704 | 25 | 180 | 3.2 | 0.0 | 0.00 | 0.00 | 0.00 | 42 | 1009.7 |
| 20260905165204 | 25 | 180 | 4.8 | 0.0 | 0.00 | 0.00 | 0.00 | 42 | 1009.5 |
| 20260905164704 | 25 | 180 | 6.4 | 0.0 | 0.00 | 0.00 | 0.00 | 45 | 1009.6 |
| 20260905164204 | 26 | 225 | 9.7 | 0.0 | 0.00 | 0.00 | 0.00 | 45 | 1009.6 |
| 20260905163704 | 26 | 225 | 12.9 | 0.0 | 0.00 | 0.00 | 0.00 | 45 | 1009.4 |
| 20260905163204 | 26 | 180 | 9.7 | 0.0 | 0.00 | 0.00 | 0.00 | 45 | 1009.7 |
| 20260905162704 | 26 | 180 | 6.4 | 0.0 | 0.00 | 0.00 | 0.00 | 45 | 1009.5 |
| 20260905161704 | 26 | 180 | 9.7 | 0.0 | 0.00 | 0.00 | 0.00 | 44 | 1009.5 |
| 20260905161203 | 27 | 180 | 6.4 | 0.0 | 0.00 | 0.00 | 0.00 | 44 | 1009.7 |
| 20260905160203 | 27 | 225 | 11.3 | 0.0 | 0.00 | 0.00 | 0.00 | 40 | 1009.7 |
| 20260905155203 | 27 | 180 | 9.7 | 0.0 | 0.00 | 0.00 | 0.00 | 40 | 1009.5 |
| 20260905154704 | 28 | 180 | 8.0 | 0.0 | 0.00 | 0.00 | 0.00 | 40 | 1009.4 |
| 20260905154204 | 28 | 180 | 9.7 | 0.0 | 0.00 | 0.00 | 0.00 | 39 | 1009.2 |
| 20260905153705 | 28 | 225 | 8.0 | 0.0 | 0.00 | 0.00 | 0.00 | 40 | 1009.4 |
| 20260905152704 | 28 | 225 | 6.4 | 0.0 | 0.00 | 0.00 | 0.00 | 36 | 1009.5 |
| 20260905152204 | 28 | 225 | 12.9 | 0.0 | 0.00 | 0.00 | 0.00 | 36 | 1009.5 |
| 20260905151704 | 28 | 135 | 8.0 | 0.0 | 0.00 | 0.00 | 0.00 | 35 | 1009.4 |
| 20260905151203 | 28 | 135 | 12.9 | 0.0 | 0.00 | 0.00 | 0.00 | 34 | 1009.5 |
| 20260905150704 | 29 | 180 | 11.3 | 0.0 | 0.00 | 0.00 | 0.00 | 33 | 1009.5 |
| 20260905150204 | 30 | 225 | 6.4 | 0.0 | 0.00 | 0.00 | 0.00 | 31 | 1009.5 |
| 20260905145704 | 30 | 180 | 9.7 | 0.0 | 0.00 | 0.00 | 0.00 | 30 | 1009.6 |
| 20260905144704 | 31 | 135 | 3.2 | 0.0 | 0.00 | 0.00 | 0.00 | 25 | 1009.7 |
| 20260905144204 | 31 | 225 | 1.6 | 0.0 | 0.00 | 0.00 | 0.00 | 25 | 1009.5 |
| 20260905143704 | 31 | 225 | 3.2 | 0.0 | 0.00 | 0.00 | 0.00 | 26 | 1009.8 |
| 20260905143204 | 31 | 225 | 4.8 | 0.0 | 0.00 | 0.00 | 0.00 | 25 | 1010.1 |
| 20260905142704 | 31 | 45 | 3.2 | 0.0 | 0.00 | 0.00 | 0.00 | 26 | 1010.1 |
| 20260905142204 | 30 | 180 | 6.4 | 0.0 | 0.00 | 0.00 | 0.00 | 25 | 1010.3 |
| 20260905141705 | 32 | 270 | 4.8 | 0.0 | 0.00 | 0.00 | 0.00 | 23 | 1010.3 |
| 20260905141204 | 32 | 45 | 3.2 | 0.0 | 0.00 | 0.00 | 0.00 | 24 | 1010.1 |
| 20260905140704 | 31 | 45 | 3.2 | 0.0 | 0.00 | 0.00 | 0.00 | 25 | 1010.3 |
| 20260905135703 | 31 | 0 | 4.8 | 0.0 | 0.00 | 0.00 | 0.00 | 23 | 1010.3 |
| 20260905134703 | 31 | 0 | 4.8 | 0.0 | 0.00 | 0.00 | 0.00 | 23 | 1010.6 |
| 20260905134204 | 30 | 45 | 4.8 | 0.0 | 0.00 | 0.00 | 0.00 | 23 | 1010.8 |
| 20260905133704 | 31 | 338 | 3.2 | 0.0 | 0.00 | 0.00 | 0.00 | 23 | 1010.8 |
| 20260905132703 | 30 | 315 | 12.9 | 0.0 | 0.00 | 0.00 | 0.00 | 23 | 1010.6 |
| 20260905132204 | 31 | 315 | 11.3 | 0.0 | 0.00 | 0.00 | 0.00 | 23 | 1010.7 |
| 20260905131704 | 30 | 225 | 3.2 | 0.0 | 0.00 | 0.00 | 0.00 | 25 | 1010.7 |
| 20260905130704 | 31 | 135 | 1.6 | 0.0 | 0.00 | 0.00 | 0.00 | 25 | 1010.3 |
| 20260905130204 | 31 | 135 | 1.6 | 0.0 | 0.00 | 0.00 | 0.00 | 25 | 1010.3 |
| 20260905125204 | 31 | 248 | 3.2 | 0.0 | 0.00 | 0.00 | 0.00 | 25 | 1010.6 |
| 20260905124704 | 30 | 315 | 3.2 | 0.0 | 0.00 | 0.00 | 0.00 | 25 | 1010.6 |
| 20260905123703 | 31 | 45 | 6.4 | 0.0 | 0.00 | 0.00 | 0.00 | 26 | 1010.9 |
| 20260905122704 | 30 | 0 | 4.8 | 0.0 | 0.00 | 0.00 | 0.00 | 26 | 1010.8 |
| 20260905122204 | 31 | 180 | 6.4 | 0.0 | 0.00 | 0.00 | 0.00 | 26 | 1011.0 |
| 20260905121203 | 31 | 0 | 6.4 | 0.0 | 0.00 | 0.00 | 0.00 | 29 | 1011.0 |
| 20260905120704 | 31 | 225 | 6.4 | 0.0 | 0.00 | 0.00 | 0.00 | 30 | 1011.3 |
| 20260905120204 | 30 | 0 | 4.8 | 0.0 | 0.00 | 0.00 | 0.00 | 29 | 1011.2 |
| 20260905115204 | 30 | 90 | 4.8 | 0.0 | 0.00 | 0.00 | 0.00 | 30 | 1011.2 |
| 20260905114704 | 30 | 0 | 6.4 | 0.0 | 0.00 | 0.00 | 0.00 | 30 | 1011.3 |
| 20260905114204 | 29 | 0 | 8.0 | 0.0 | 0.00 | 0.00 | 0.00 | 30 | 1011.4 |
| 20260905113705 | 29 | 315 | 12.9 | 0.0 | 0.00 | 0.00 | 0.00 | 30 | 1011.4 |
| 20260905113204 | 30 | 90 | 9.7 | 0.0 | 0.00 | 0.00 | 0.00 | 29 | 1011.5 |
| 20260905112704 | 30 | 0 | 6.4 | 0.0 | 0.00 | 0.00 | 0.00 | 28 | 1011.6 |
| 20260905111704 | 30 | 45 | 8.0 | 0.0 | 0.00 | 0.00 | 0.00 | 27 | 1011.5 |
| 20260905111204 | 30 | 45 | 8.0 | 0.0 | 0.00 | 0.00 | 0.00 | 28 | 1011.6 |
| 20260905110204 | 30 | 0 | 9.7 | 0.0 | 0.00 | 0.00 | 0.00 | 26 | 1011.7 |
| 20260905105204 | 30 | 270 | 4.8 | 0.0 | 0.00 | 0.00 | 0.00 | 28 | 1011.8 |
| 20260905104704 | 29 | 90 | 4.8 | 0.0 | 0.00 | 0.00 | 0.00 | 28 | 1011.9 |
| 20260905104204 | 29 | 270 | 3.2 | 0.0 | 0.00 | 0.00 | 0.00 | 28 | 1011.7 |
| 20260905103704 | 29 | 270 | 12.9 | 0.0 | 0.00 | 0.00 | 0.00 | 26 | 1011.8 |
| 20260905103204 | 29 | 315 | 12.9 | 0.0 | 0.00 | 0.00 | 0.00 | 26 | 1011.9 |
| 20260905102704 | 29 | 90 | 11.3 | 0.0 | 0.00 | 0.00 | 0.00 | 26 | 1011.8 |
| 20260905102204 | 30 | 0 | 9.7 | 0.0 | 0.00 | 0.00 | 0.00 | 27 | 1012.0 |
| 20260905101704 | 29 | 315 | 11.3 | 0.0 | 0.00 | 0.00 | 0.00 | 26 | 1012.0 |
| 20260905101203 | 30 | 270 | 6.4 | 0.0 | 0.00 | 0.00 | 0.00 | 27 | 1012.0 |
| 20260905100704 | 30 | 45 | 6.4 | 0.0 | 0.00 | 0.00 | 0.00 | 28 | 1012.2 |
| 20260905100204 | 30 | 180 | 9.7 | 0.0 | 0.00 | 0.00 | 0.00 | 26 | 1012.2 |
| 20260905095704 | 30 | 315 | 1.6 | 0.0 | 0.00 | 0.00 | 0.00 | 27 | 1012.3 |
| 20260905095204 | 29 | 315 | 3.2 | 0.0 | 0.00 | 0.00 | 0.00 | 29 | 1012.4 |
| 20260905094204 | 29 | 225 | 3.2 | 0.0 | 0.00 | 0.00 | 0.00 | 27 | 1012.5 |
| 20260905093704 | 29 | 315 | 6.4 | 0.0 | 0.00 | 0.00 | 0.00 | 30 | 1012.4 |
| 20260905093204 | 29 | 315 | 9.7 | 0.0 | 0.00 | 0.00 | 0.00 | 30 | 1012.5 |
| 20260905092703 | 28 | 315 | 11.3 | 0.0 | 0.00 | 0.00 | 0.00 | 30 | 1012.5 |
| 20260905092203 | 29 | 315 | 3.2 | 0.0 | 0.00 | 0.00 | 0.00 | 31 | 1012.5 |
| 20260905091704 | 28 | 270 | 3.2 | 0.0 | 0.00 | 0.00 | 0.00 | 31 | 1012.8 |